Location: Vallejo Observatory
(38.1221°N, 122.2109°W)
Time: 02:46:55
(UTC-07:00)

Daily predictions for brighter satellites

Satellite Brightness Start Highest point End
(mag) Time Altitude Azimuth Time Altitude Azimuth Time Altitude Azimuth
Terra 4.3 00:11:00 17° NW 00:11:00 17° NW 00:12:28 10° NW
SL-16 R/B 3.9 00:28:45 27° NNE 00:28:45 27° NNE 00:31:16 10° NNE
CZ-4C R/B 3.6 00:29:51 10° NW 00:34:58 47° WNW 00:34:58 47° WNW
Cosmos 2333 Rocket 4.3 00:45:13 20° WNW 00:45:28 20° NW 00:49:34 10° N
Cosmos 2237 Rocket 4.1 00:49:57 23° NW 00:49:57 23° NW 00:53:44 10° N
Cosmos 2278 Rocket 4.5 00:50:05 10° NW 00:51:30 16° WNW 00:51:30 16° WNW
CZ-2C R/B 4.4 01:00:35 10° N 01:03:19 29° N 01:03:19 29° N
ATLAS 2AS CENTAUR R/B 3.3 01:07:36 61° NNE 01:07:36 61° NNE 01:14:09 10° NNE
ATLAS 3B R/B 3.6 01:36:22 10° NNW 01:40:31 40° NNW 01:40:31 40° NNW
Cosmos 2369 Rocket 3.8 01:46:58 10° NNW 01:49:47 30° N 01:49:47 30° N
USA 238 DEB 4.3 01:53:28 10° NNW 01:58:38 52° NNW 01:58:38 52° NNW
USA 238 4.3 01:53:34 10° NNW 01:58:47 52° NNW 01:58:47 52° NNW
Cosmos 1943 Rocket 3.5 02:05:39 10° N 02:09:23 36° NNE 02:09:23 36° NNE
USA 215 3.6 02:08:48 10° NE 02:14:19 60° N 02:14:19 60° N
SL-16 R/B 4.0 02:36:44 23° ESE 02:39:11 31° ENE 02:44:30 10° N
Cosmos 2366 rocket 4.4 02:39:26 10° N 02:44:17 55° NNW 02:44:17 55° NNW
ADEOS Rocket 4.4 02:40:40 10° NE 02:46:05 31° E 02:46:59 30° ESE
USA 267 4.2 02:40:08 10° ESE 02:46:17 45° NE 02:52:25 10° NW
Cosmos 1656 Rocket 4.5 02:48:03 10° N 02:53:08 45° ENE 02:53:08 45° ENE
NOSS 3-4 (A) 3.6 02:57:11 68° N 02:57:11 68° N 03:02:58 10° NNE
NOSS 3-4 (C) 3.6 02:57:17 68° N 02:57:17 68° N 03:03:06 10° NNE
NOSS 3-2 (A) 3.9 03:05:29 10° NW 03:13:07 73° WSW 03:13:30 72° SW
Aureole 1 Rocket 4.3 03:16:56 43° N 03:16:56 43° N 03:20:00 10° N
Lacrosse 5 rocket 3.1 03:17:23 32° E 03:17:23 32° E 03:20:21 10° NE
NPP 4.2 03:21:48 10° N 03:26:10 47° NW 03:26:10 47° NW
Resurs 1-4 Rocket 2.1 03:25:24 10° NNE 03:30:40 70° ESE 03:30:41 70° ESE
Nadezhda 3 Rocket 3.9 03:30:44 69° W 03:30:45 69° W 03:37:04 10° N
Spot 4 Rocket 4.0 03:29:30 10° NNE 03:34:25 81° NNE 03:34:25 81° NNE
USA 32 4.4 03:35:07 55° ESE 03:35:44 60° E 03:40:54 10° NNE
RESURS DK-1 3.7 03:37:33 34° N 03:37:33 34° N 03:40:07 10° NNE
Cosmos 921 Rocket 4.4 03:32:59 10° N 03:37:12 38° ENE 03:39:02 26° ESE
Cosmos 2056 Rocket 4.1 03:35:37 10° N 03:40:52 56° ENE 03:43:40 26° SE
CZ-2D R/B 1.9 03:36:04 10° NNE 03:41:24 87° ESE 03:41:36 83° SSE
Cosmos 1680 Rocket 4.4 03:43:51 36° NW 03:43:51 36° NW 03:48:08 10° N
Cosmos 1953 Rocket 3.7 03:49:33 72° ENE 03:49:33 72° ENE 03:53:49 10° N
SL-27 R/B 4.1 03:50:59 30° N 03:50:59 30° N 03:52:58 10° N
ADEOS 3.4 03:47:17 10° N 03:52:31 74° WNW 03:52:48 72° WSW
Cosmos 2082 Rocket 4.2 03:50:19 12° SSE 03:54:10 23° E 03:58:30 10° NE
Cosmos 1943 Rocket 4.3 03:50:13 10° NW 03:50:52 13° WNW 03:50:52 13° WNW
COSMOS 2455 2.8 03:49:12 10° NW 03:55:07 60° WSW 03:55:09 60° WSW
IRS-1D 3.6 03:53:52 10° N 03:59:01 61° WNW 03:59:23 60° W
MOZ.5/SAFIR/RUBIN 5/SL-8 4.3 03:57:43 25° SE 04:00:17 56° ENE 04:04:52 10° N
COSMOS 2406 3.6 03:59:48 44° W 04:00:22 45° WNW 04:05:53 10° N
CZ-2D R/B 3.6 03:59:26 10° NNE 04:03:28 61° E 04:03:47 58° SE
Cosmos 1707 3.9 04:03:04 33° SE 04:03:57 39° E 04:07:35 10° NNE
ARIANE 5 R/B 2.7 04:04:50 10° N 04:09:54 52° WNW 04:10:30 49° W
COBE Rocket 3.9 04:06:27 10° N 04:11:25 61° WNW 04:12:04 56° WSW
NOSS 2-2 (E) 3.6 04:11:37 56° WNW 04:11:43 56° NW 04:16:17 10° NNE
Cosmos 1825 Rocket 4.2 04:12:23 40° WNW 04:12:23 40° WNW 04:16:03 10° N
Cosmos 1470 3.1 04:09:18 10° N 04:13:10 61° E 04:14:26 38° SE
Cosmos 1953 2.7 04:11:09 10° NNW 04:14:21 49° NW 04:14:21 49° NW
Cosmos 1371 Rocket 4.2 04:11:23 10° NNW 04:16:34 50° WSW 04:17:05 49° WSW
COSMOS 2487 3.3 04:17:47 41° SE 04:18:22 46° ESE 04:21:48 10° NNE
Cosmos 1821 Rocket 4.2 04:13:30 10° NNW 04:19:16 45° W 04:20:32 40° WSW
SL-16 R/B 2.9 04:21:49 37° WSW 04:22:38 39° W 04:28:22 10° NNW
Cosmos 1378 4.2 04:20:56 25° SSE 04:22:38 42° E 04:26:12 10° NNE
UNKNOWN OBJECT B 3.0 04:22:49 10° N 04:26:44 54° WNW 04:27:03 53° W
Okean O Rocket 3.1 04:24:46 10° NNE 04:28:49 34° E 04:32:49 10° SSE
USA 267 3.3 04:22:49 10° SSE 04:29:09 53° SW 04:35:32 10° NW
Cosmos 1818 3.7 04:28:18 39° WSW 04:30:06 59° WNW 04:35:31 10° NNE
ADEOS Rocket 3.7 04:25:59 10° N 04:31:35 40° WNW 04:33:57 30° WSW
Cosmos 1758 4.5 04:27:58 10° NNW 04:30:41 28° WNW 04:30:41 28° WNW
CENTAUR R/B 3.1 04:25:41 10° NW 04:33:42 79° WSW 04:42:08 10° SSE
Tiangong 1 1.8 04:35:40 38° NNW 04:36:11 44° NNE 04:38:54 10° E
ADEOS II 3.1 04:31:31 10° NNE 04:36:32 43° E 04:41:30 10° S
Cosmos 1605 Rocket 4.0 04:33:52 10° NNW 04:39:58 60° W 04:44:55 15° SSW
Cosmos 1934 Rocket 4.5 04:35:16 10° NNW 04:41:03 40° W 04:43:51 26° SW
Meteor 1-24 Rocket 4.4 04:36:54 10° SSE 04:42:08 52° E 04:47:34 10° NNE
Cosmos 1339 Rocket 4.4 04:40:01 22° SSW 04:44:01 68° W 04:50:07 10° N
Intercosmos 25 4.1 04:39:14 10° N 04:46:29 84° W 04:50:51 10° S
PSLV R/B 4.1 04:43:40 10° NNE 04:47:47 73° ESE 04:51:01 16° S
USA 161 2.7 04:49:31 29° WNW 04:49:31 29° WNW 04:51:23 10° NNW
Cosmos 1269 Rocket 4.5 04:44:59 12° S 04:49:42 61° ESE 04:54:55 10° NNE
Cosmos 1733 3.6 04:46:53 10° NNW 04:50:28 41° W 04:51:22 34° SW
Lacrosse 5 rocket 2.8 04:53:05 20° W 04:55:20 31° NW 04:59:28 10° NNE
Cosmos 389 Rocket 3.0 04:52:33 10° NNW 04:55:57 39° W 04:56:58 31° SW
Delta 2 Rocket 2.9 04:59:49 33° WSW 05:01:01 53° S 05:04:17 10° ESE
Cosmos 2098 Rocket 3.5 05:01:17 10° NW 05:03:08 22° WNW 05:03:08 22° WNW
CZ-4B DEB 4.5 04:58:52 10° NNE 05:04:22 70° ESE 05:09:48 10° S
Orbus 7S? 3.8 05:01:43 10° NNW 05:04:38 43° NE 05:07:08 10° ESE
Cosmos 1842 Rocket 3.5 05:01:16 10° N 05:05:41 82° W 05:10:06 10° S
MOS 1 Rocket 3.8 05:01:46 10° N 05:05:45 36° WNW 05:08:13 20° SW
CZ-4B R/B 3.0 05:01:54 10° NNE 05:06:14 87° WNW 05:10:43 10° SSW
Cosmos-2242 3.8 05:02:32 10° NNW 05:06:27 32° W 05:08:56 18° SW
Cosmos 1697 Rocket 3.6 05:02:01 10° NNW 05:07:31 53° ENE 05:12:59 10° SE
Cosmos 1000 Rocket 4.5 05:02:01 10° S 05:08:10 90° ENE 05:14:24 10° N
EO 1 Del DPAF 4.1 05:05:35 10° SSE 05:09:20 53° ENE 05:13:07 10° N
Resurs 1-4 Rocket 3.9 05:07:09 10° NNW 05:09:52 14° WNW 05:11:47 12° W
Cosmos 839 Rocket 4.4 05:04:15 10° NW 05:10:32 54° WSW 05:18:03 10° S
Cosmos 2100 Rocket 3.9 05:05:04 10° N 05:11:16 81° W 05:17:25 10° S
Cosmos 2278 3.7 05:06:29 10° NNW 05:12:09 66° WSW 05:17:47 10° S
PSLV R/B 3.6 05:09:00 10° NNE 05:13:24 85° ESE 05:17:42 10° SSW
Cosmos 2173 Rocket 4.0 05:12:03 10° N 05:18:21 78° W 05:24:31 10° S
Cosmos 2369 3.8 05:14:04 10° NNW 05:19:42 58° WSW 05:25:17 10° S
CZ-2D R/B 4.1 05:18:58 10° NW 05:20:40 12° WNW 05:22:21 10° WNW
Meteor 2-5 Rocket 4.3 05:17:47 13° SW 05:22:32 40° WNW 05:28:00 10° N
Cosmos 1674 4.4 05:22:04 10° SSE 05:25:30 34° E 05:28:59 10° NNE
Cosmos 2221 3.0 05:21:48 10° N 05:26:04 63° E 05:30:16 10° SSE
Cosmos 2061 Rocket 4.0 05:30:11 10° NNW 05:36:18 60° W 05:42:20 10° S
Cosmos 2082 Rocket 2.6 05:32:24 10° SW 05:37:52 46° WNW 05:43:22 10° N
Cosmos 1833 Rocket 3.0 05:33:21 10° SW 05:38:46 49° WNW 05:44:13 10° NNE
Meteor PRIRODA 3.7 05:35:09 10° NNE 05:38:52 88° E 05:42:32 10° SSW
Cosmos 158 Rocket 4.2 05:35:40 10° SW 05:40:29 49° WNW 05:45:28 10° N
CZ-2C R/B 3.6 05:36:06 10° S 05:40:29 66° WSW 05:44:57 10° NNW
Okean-O 3.4 05:36:07 10° NNE 05:40:30 56° E 05:44:51 10° S
Cosmos 1980 Rocket 2.9 05:35:39 10° NNW 05:41:17 60° ENE 05:46:52 10° SE
Meteor 2-1 Rocket 4.3 05:38:15 10° NNW 05:43:49 61° W 05:49:28 10° S
Cosmos 1656 3.8 05:38:53 10° NNW 05:44:07 51° WSW 05:49:21 10° S
Meteor 1-31 Rocket 3.0 05:40:30 10° NNE 05:44:25 75° ESE 05:48:20 10° S
CZ-4B R/B 3.5 05:41:34 10° N 05:46:43 48° WNW 05:51:47 10° SW
DELTA 2 R/B(2) 3.7 05:46:34 10° SW 05:48:10 39° SSE 05:50:08 10° E
ERS-2 2.9 05:46:37 10° NNE 05:50:15 56° E 05:53:52 10° S
Okean 3 Rocket 3.8 05:47:25 10° SSW 05:51:41 51° W 05:56:00 10° N
Cosmos 2123 Rocket 4.1 05:46:43 10° SSW 05:53:01 72° W 05:59:19 10° N
Cosmos 494 Rocket 4.3 05:48:25 10° S 05:53:30 73° ESE 05:58:36 10° NNE
Cosmos 1908 3.4 05:52:04 10° N 05:55:56 80° E 05:59:48 10° S
Cosmos 2016 Rocket 4.2 05:50:01 10° NNW 05:56:04 54° W 06:02:11 10° SSW
